Location: Laguna de la Cañada del Gallo
(40.3974°N, 5.2096°W)
Time: 02:01:13
(UTC+00:00)

CENTAUR R/B - Pass Details

Date: 18 April 2024
Orbit: 669 x 1515 km, 63.4° (Epoch: 25 May)

Event Time Altitude Azimuth Distance (km) Brightness Sun altitude
Rises 23:21:49 0° 323° (NW) 4,277 6.7 -36.6°
Reaches altitude 10° 23:24:31 10° 322° (NW) 3,399 6.0 -36.8°
Enters shadow 23:32:09 67° 277° (W) 1,566 3.4 -37.2°
